Regional Weather Roundup
Issued by NWS Midland/Odessa, TX

Skip options and go directly to product.
Home | Oldest Version | Next Version | Current Version | All | Text Only | Save Text | Print | Product List | Glossary On

Skip product version selection by date and time.   
544
ASUS44 KMAF 200002
RWRMAF
MIDLAND AREA WEATHER ROUNDUP
NATIONAL WEATHER SERVICE MIDLAND TX
700 PM CDT SUN OCT 19 2014

...IN SOUTHWEST TEXAS AND SOUTHEAST NEW MEXICO...

CITY           SKY/WX    TMP DP  RH WIND       PRES   REMARKS
ALPINE         PTCLDY    70  55  57 SE14G24   30.11R
ANDREWS        FAIR      72  55  54 SE14      30.04R
ARTESIA        NOT AVBL
BIG SPRING     MOCLDY    74  60  61 E5        30.05R
CARLSBAD       PTCLDY    69  58  67 NW3       30.01S
DRYDEN           N/A     76  61  59 E18G24    29.99R
FORT STOCKTON  PTCLDY    72  60  66 SE16G28   30.02R
GUAD PASS      NOT AVBL
HOBBS          PTCLDY    72  55  56 E6        30.05R
MARFA          MOCLDY    72  52  49 E15       30.07S
MIDLAND AIRPK  PTCLDY    75  57  54 SE14G24   30.04R
MIDLAND INTL   PTCLDY    73  55  53 SE21      30.03R
ODESSA         MOCLDY    73  56  54 SE20G31   30.04R
PECOS          PTCLDY    75  57  54 N6        29.98R
PRESIDIO       FAIR      83  53  34 NE14G20   29.89S
SEMINOLE       CLEAR     72  56  58 SE9       30.05R
SNYDER         MOCLDY    73  59  61 SE7       30.04S
WINK           PTCLDY    78  56  46 SE18      29.98S
$$
...OTHER STATIONS IN TEXAS...

CITY           SKY/WX    TMP DP  RH WIND       PRES   REMARKS
ABILENE        CLEAR     75  58  55 SE9       30.04S
AMARILLO       CLOUDY    66  56  70 S10       30.05S
AUSTIN         MOCLDY    75  62  64 E7        30.02R
BROWNSVILLE    CLOUDY    78  67  68 E5        29.94S
CORPUS CHRISTI MOCLDY    79  65  62 E12       29.97F
DALLAS FTW     PTCLDY    70  56  61 SE6       30.05S
DEL RIO        MOCLDY    78  64  61 S6        29.97R
EL PASO        MOCLDY    73  52  47 N21       29.92F
HOUSTON INT    MOCLDY    73  64  73 N6        30.03R
LUBBOCK        CLOUDY    66  61  84 SE6       30.05S
SAN ANGELO     CLOUDY    78  53  41 E9        30.02R
SAN ANTONIO    CLOUDY    79  57  46 E9        30.00S
WACO           CLOUDY    74  61  63 E5        30.04S
WICHITA FALLS  NOT AVBL
$$
...OTHER LOCATIONS IN NEW MEXICO...

CITY           SKY/WX    TMP DP  RH WIND       PRES   REMARKS
ALAMAGORDO     NOT AVBL
ALBUQUERQUE    CLOUDY    61  43  51 SE8       30.15S
CANNON AFB     MOCLDY    67  53  59 S6        30.08S
CLOVIS         MOCLDY    64  54  68 S13       30.11R
HOLLOMAN AFB   CLEAR     71  47  42 N12       30.00F
ROSWELL        CLEAR     70  54  56 CALM      30.05S
RUIDOSO        PTCLDY    57  48  72 MISG      30.19F
SANTA FE       LGT RAIN  60  38  43 W20       30.18R
TRUTH OR CONSE CLEAR     64  48  56 NE9       30.05F
TUCUMCARI      MOCLDY    71  47  42 SW3       30.03S
$$

USA.gov is the U.S. government's official web portal to all federal, state and local government web resources and services.